Bei Facebook empfehlenBei Twitter postenGoogle plusPinterest

Das Wetter im Erzgebirge am 30.01.2015

Wetter und Klima am 30.01.2015 Holzhau im Erzgebirge (630m ü.NN)
Letzte gemessene Temperatur und Uhrzeit der Messung23:45:00 Uhr-3.70 °C
Temperatur (Maximum / Höchstwert) und Uhrzeit der Messung11:45:00 Uhr1.40 °C
Temperatur (Minimum / Tiefstwert) und Uhrzeit der Messung19:45:00-7.00 °C
Errechneter Absolutwert der Temperaturschwankungen zwischen Tmin und Tmax des Tages8.40 K
Errechnete Tagesmitteltemperatur-2.42917 °C
Gesamt - Niederschlag des Tages (in flüssiger Form)0.00 Liter / m²
Luftdruck (Maximum / Höchstwert) und Zeitpunkt der Messung00:00:00 Uhr977.30 hPa
Luftdruck (Minimum / Tiefstwert) und Zeitpunkt der Messung06:30:00 Uhr971.90 hPa
Errechneter Absolutwert der Luftdruckschwankungen des Tages5.40 hPa
Höchste gemessene Windgeschwindigkeit und Uhrzeit der Messung01:00:00 Uhr18.00 km/h
Errechnete Windhäufigkeit in Relation zu den Messwerten des Tages21.87500 %
Niedrigste Windkühle (Windchill) und Zeitpunkt der Messung21:30:00 Uhr-8.00 °C
Taupunkt (Maximum / Höchstwert) und Uhrzeit der Messung11:30:00 Uhr-0.40 °C
Taupunkt (Minimum / Tiefstwert) und Uhrzeit der Messung19:45:00-8.80 °C
Anzahl der automatisch eingelesenen Messwerte 96

Detaillierte Wetter- und Klima- Messwerte für den 30.01.2015 in Holzhau im Erzgebirge (630m ü.NN)
ZeitTemperaturLuftdruckRel. LuftfeuchteWindWindrichtungWindchillTaupunktNiederschlag l/m²
23:45:00-3.70 °C975.70 hPa90.00 %-5.30 °C 
23:30:00-3.80 °C975.60 hPa90.00 %5.40 km/hSW-6.10 °C-5.40 °C 
23:15:00-3.90 °C975.60 hPa90.00 %-5.50 °C 
23:00:00-4.00 °C975.50 hPa90.00 %-5.60 °C 
22:45:00-4.10 °C975.50 hPa90.00 %5.04 km/hSSW-6.30 °C-5.70 °C 
22:30:00-4.20 °C975.60 hPa90.00 %-5.80 °C 
22:15:00-4.40 °C975.40 hPa90.00 %5.04 km/hSW-6.60 °C-6.00 °C 
22:00:00-4.40 °C975.40 hPa91.00 %1.80 km/hSW-4.40 °C-5.80 °C 
21:45:00-4.50 °C975.40 hPa91.00 %-5.90 °C 
21:30:00-4.90 °C975.30 hPa90.00 %6.84 km/hW-8.00 °C-6.50 °C 
21:15:00-4.90 °C975.10 hPa90.00 %-6.50 °C 
21:00:00-5.00 °C975.20 hPa90.00 %-6.60 °C 
20:45:00-5.60 °C975.30 hPa90.00 %-7.10 °C 
20:30:00-6.20 °C975.20 hPa90.00 %-7.70 °C 
20:15:00-6.50 °C975.10 hPa89.00 %-8.20 °C 
20:00:00-6.60 °C975.30 hPa89.00 %-8.30 °C 
19:45:00-7.00 °C975.00 hPa88.00 %-8.80 °C 
19:30:00-6.90 °C974.90 hPa88.00 %-8.80 °C 
19:15:00-6.50 °C974.80 hPa87.00 %-8.50 °C 
19:00:00-6.10 °C975.00 hPa87.00 %-8.10 °C 
18:45:00-5.60 °C975.00 hPa86.00 %-7.80 °C 
18:30:00-5.00 °C975.20 hPa86.00 %-7.20 °C 
18:15:00-4.20 °C975.20 hPa86.00 %-6.40 °C 
18:00:00-3.90 °C975.30 hPa86.00 %5.40 km/hSSW-6.20 °C-6.10 °C 
17:45:00-3.60 °C975.30 hPa86.00 %-5.80 °C 
17:30:00-3.40 °C975.40 hPa85.00 %-5.80 °C 
17:15:00-3.20 °C975.40 hPa85.00 %3.96 km/hSSW-3.20 °C-5.60 °C 
17:00:00-3.10 °C975.40 hPa84.00 %-5.70 °C 
16:45:00-2.90 °C975.30 hPa84.00 %-5.50 °C 
16:30:00-2.70 °C975.30 hPa84.00 %-5.30 °C 
16:15:00-2.50 °C975.30 hPa83.00 %-5.30 °C 
16:00:00-2.40 °C975.10 hPa83.00 %-5.20 °C 
15:45:00-2.10 °C975.00 hPa82.00 %3.60 km/hSW-2.10 °C-5.10 °C 
15:30:00-1.90 °C975.10 hPa82.00 %-4.90 °C 
15:15:00-1.90 °C975.00 hPa82.00 %-4.90 °C 
15:00:00-1.70 °C975.10 hPa81.00 %-4.90 °C 
14:45:00-1.50 °C975.30 hPa81.00 %-4.70 °C 
14:30:00-1.20 °C975.20 hPa81.00 %-4.40 °C 
14:15:00-0.90 °C975.00 hPa82.00 %-3.90 °C 
14:00:00-0.80 °C974.90 hPa84.00 %9.36 km/hSW-4.10 °C-3.40 °C 
13:45:00-0.90 °C974.80 hPa86.00 %9.72 km/hWSW-4.30 °C-3.20 °C 
13:30:00-1.20 °C974.80 hPa87.00 %3.60 km/hWNW-1.20 °C-3.30 °C 
13:15:00-0.90 °C974.70 hPa88.00 %-2.80 °C 
13:00:00-0.70 °C974.80 hPa88.00 %-2.60 °C 
12:45:00-0.50 °C974.70 hPa88.00 %-2.40 °C 
12:30:00-0.20 °C974.70 hPa88.00 %-2.10 °C 
12:15:000.30 °C974.70 hPa88.00 %-1.40 °C 
12:00:000.90 °C974.20 hPa88.00 %-0.90 °C 
11:45:001.40 °C973.90 hPa87.00 %-0.50 °C 
11:30:001.40 °C974.10 hPa88.00 %-0.40 °C 
11:15:001.30 °C974.00 hPa88.00 %-0.50 °C 
11:00:001.00 °C974.30 hPa89.00 %6.48 km/hSSO-1.10 °C-0.60 °C 
10:45:000.60 °C974.20 hPa90.00 %-0.80 °C 
10:30:000.10 °C974.30 hPa90.00 %-1.30 °C 
10:15:00-0.10 °C974.10 hPa90.00 %-1.70 °C 
10:00:00-0.40 °C973.90 hPa91.00 %-1.80 °C 
09:45:00-0.60 °C973.70 hPa91.00 %-2.00 °C 
09:30:00-1.00 °C973.50 hPa91.00 %-2.40 °C 
09:15:00-1.30 °C973.40 hPa91.00 %-2.70 °C 
09:00:00-1.50 °C973.50 hPa91.00 %-2.90 °C 
08:45:00-1.70 °C973.50 hPa91.00 %-3.10 °C 
08:30:00-1.80 °C973.40 hPa91.00 %1.44 km/hOSO-1.80 °C-3.20 °C 
08:15:00-1.90 °C973.30 hPa91.00 %-3.30 °C 
08:00:00-1.90 °C973.00 hPa91.00 %-3.30 °C 
07:45:00-1.90 °C973.10 hPa91.00 %-3.30 °C 
07:30:00-1.90 °C973.20 hPa91.00 %-3.30 °C 
07:15:00-1.90 °C972.70 hPa91.00 %-3.30 °C 
07:00:00-1.90 °C972.40 hPa91.00 %-3.30 °C 
06:45:00-2.10 °C972.20 hPa91.00 %-3.50 °C 
06:30:00-2.20 °C971.90 hPa91.00 %2.52 km/hOSO-2.20 °C-3.60 °C 
06:15:00-2.20 °C972.10 hPa92.00 %-3.50 °C 
06:00:00-2.20 °C972.20 hPa91.00 %10.08 km/hOSO-6.00 °C-3.60 °C 
05:45:00-2.40 °C972.00 hPa91.00 %-3.80 °C 
05:30:00-2.20 °C971.90 hPa91.00 %-3.60 °C 
05:15:00-2.20 °C972.00 hPa91.00 %-3.60 °C 
05:00:00-2.20 °C972.00 hPa91.00 %-3.60 °C 
04:45:00-2.20 °C972.40 hPa91.00 %-3.60 °C 
04:30:00-2.30 °C972.40 hPa91.00 %-3.70 °C 
04:15:00-2.40 °C972.50 hPa91.00 %-3.80 °C 
04:00:00-2.50 °C972.70 hPa91.00 %-3.90 °C 
03:45:00-2.50 °C972.70 hPa91.00 %-3.90 °C 
03:30:00-2.60 °C973.00 hPa91.00 %2.16 km/hONO-2.60 °C-4.00 °C 
03:15:00-2.50 °C973.20 hPa91.00 %-3.90 °C 
03:00:00-2.40 °C973.60 hPa91.00 %-3.80 °C 
02:45:00-2.30 °C974.00 hPa91.00 %-3.70 °C 
02:30:00-2.10 °C974.30 hPa91.00 %-3.50 °C 
02:15:00-1.90 °C974.60 hPa91.00 %11.88 km/hOSO-6.10 °C-3.30 °C 
02:00:00-1.90 °C974.90 hPa91.00 %-3.30 °C 
01:45:00-1.80 °C974.90 hPa91.00 %-3.20 °C 
01:30:00-1.60 °C975.30 hPa91.00 %-3.00 °C 
01:15:00-1.60 °C975.80 hPa91.00 %3.96 km/hOSO-1.60 °C-3.00 °C 
01:00:00-1.60 °C976.00 hPa90.00 %18.00 km/hSO-6.90 °C-3.20 °C 
00:45:00-1.60 °C976.40 hPa90.00 %7.20 km/hNNO-4.30 °C-3.20 °C 
00:30:00-1.60 °C976.80 hPa90.00 %-3.20 °C 
00:15:00-1.60 °C977.10 hPa90.00 %14.40 km/hSO-6.30 °C-3.20 °C 
00:00:00-1.60 °C977.30 hPa90.00 %-3.20 °C 

Permanenter Link zu dieser Seite: Wetter im Erzgebirge am 30.01.2015
Performance-Info: Die Erstellung der Seite / Statistik(en) / Tabelle(n) erforderte 5 Datenbankserver-Abfrage(n) und dauerte 96 Millisekunden. (Dieser Messwert ist von der Gesamt-Auslastung des Servers abhängig.)
Erzgebirge - Wetter | Erzgebirge - Wetter (Mobilgeräte) | Komplette Klimadatenbank